Time,TemperatureF,DewpointF,PressureIn,WindDirection,WindDirectionDegrees,WindSpeedMPH,WindSpeedGustMPH,Humidity,HourlyPrecipIn,Conditions,Clouds,dailyrainin,SoftwareType,DateUTC
2013-06-25 00:01:00,69.0,68.0,29.76,WNW,287,0.0,-999.0,96,-99.99,,,-99.99,,2013-06-25 05:01:00,
2013-06-25 00:11:00,69.0,68.0,29.76,WNW,287,0.0,-999.0,96,-99.99,,,-99.99,,2013-06-25 05:11:00,
2013-06-25 00:22:00,69.0,68.0,29.75,WNW,287,0.0,-999.0,96,-99.99,,,-99.99,,2013-06-25 05:22:00,
2013-06-25 00:32:00,70.0,69.0,29.75,WNW,287,0.0,-999.0,96,-99.99,,,-99.99,,2013-06-25 05:32:00,
2013-06-25 00:44:00,70.0,69.0,29.75,WNW,287,0.0,-999.0,97,-99.99,,,-99.99,,2013-06-25 05:44:00,
2013-06-25 00:52:00,70.0,69.0,29.75,WNW,287,0.0,-999.0,97,-99.99,,,-99.99,,2013-06-25 05:52:00,
2013-06-25 01:01:00,70.0,69.0,29.75,WNW,287,0.0,-999.0,97,-99.99,,,-99.99,,2013-06-25 06:01:00,
2013-06-25 01:11:00,71.0,70.0,29.75,WNW,287,0.0,-999.0,97,-99.99,,,-99.99,,2013-06-25 06:11:00,
2013-06-25 01:22:00,71.0,70.0,29.75,WNW,287,0.0,-999.0,97,-99.99,,,-99.99,,2013-06-25 06:22:00,
2013-06-25 01:33:00,71.0,70.0,29.75,WNW,287,0.0,-999.0,97,-99.99,,,-99.99,,2013-06-25 06:33:00,
2013-06-25 01:43:00,72.0,71.0,29.75,WNW,287,0.0,-999.0,97,-99.99,,,-99.99,,2013-06-25 06:43:00,
2013-06-25 01:52:00,72.0,71.0,29.75,WNW,287,0.0,-999.0,97,-99.99,,,-99.99,,2013-06-25 06:52:00,
2013-06-25 02:02:00,72.0,71.0,29.75,WNW,287,0.0,-999.0,97,-99.99,,,-99.99,,2013-06-25 07:02:00,
2013-06-25 02:11:00,72.0,71.0,29.75,WNW,287,0.0,-999.0,97,-99.99,,,-99.99,,2013-06-25 07:11:00,
2013-06-25 02:22:00,72.0,71.0,29.74,WSW,253,0.0,-999.0,97,-99.99,,,-99.99,,2013-06-25 07:22:00,
2013-06-25 02:33:00,72.0,71.0,29.74,WSW,253,0.0,-999.0,97,-99.99,,,-99.99,,2013-06-25 07:33:00,
2013-06-25 03:01:00,73.0,72.0,29.74,SW,236,0.0,-999.0,97,-99.99,,,-99.99,,2013-06-25 08:01:00,
2013-06-25 03:11:00,73.0,72.0,29.73,WNW,296,0.0,-999.0,97,-99.99,,,-99.99,,2013-06-25 08:11:00,
2013-06-25 03:34:00,73.0,72.0,29.73,WNW,294,0.0,-999.0,97,-99.99,,,-99.99,,2013-06-25 08:34:00,
2013-06-25 03:43:00,73.0,72.0,29.73,West,275,0.0,-999.0,96,-99.99,,,-99.99,,2013-06-25 08:43:00,
2013-06-25 03:53:00,73.0,72.0,29.73,WSW,257,0.0,-999.0,96,-99.99,,,-99.99,,2013-06-25 08:53:00,
2013-06-25 04:02:00,73.0,72.0,29.73,NE,53,0.0,-999.0,96,-99.99,,,-99.99,,2013-06-25 09:02:00,
2013-06-25 04:12:00,73.0,72.0,29.74,WSW,257,0.0,-999.0,96,-99.99,,,-99.99,,2013-06-25 09:12:00,
2013-06-25 04:33:00,73.0,72.0,29.74,West,259,0.0,-999.0,96,-99.99,,,-99.99,,2013-06-25 09:33:00,
2013-06-25 04:43:00,72.0,71.0,29.73,WSW,256,0.0,-999.0,96,-99.99,,,-99.99,,2013-06-25 09:43:00,
2013-06-25 05:01:00,72.0,71.0,29.73,West,259,0.0,-999.0,96,-99.99,,,-99.99,,2013-06-25 10:01:00,
2013-06-25 05:11:00,72.0,70.0,29.73,West,277,0.0,-999.0,95,-99.99,,,-99.99,,2013-06-25 10:11:00,
2013-06-25 05:33:00,72.0,71.0,29.73,West,260,0.0,-999.0,96,-99.99,,,-99.99,,2013-06-25 10:33:00,
2013-06-25 05:42:00,72.0,71.0,29.72,West,261,0.0,-999.0,96,-99.99,,,-99.99,,2013-06-25 10:42:00,
2013-06-25 05:52:00,72.0,71.0,29.72,WSW,253,0.0,-999.0,96,-99.99,,,-99.99,,2013-06-25 10:52:00,
2013-06-25 06:02:00,72.0,71.0,29.72,WSW,248,0.0,-999.0,96,-99.99,,,-99.99,,2013-06-25 11:02:00,
2013-06-25 06:12:00,72.0,71.0,29.72,WSW,245,1.0,-999.0,96,-99.99,,,-99.99,,2013-06-25 11:12:00,
2013-06-25 06:43:00,72.0,71.0,29.71,WSW,246,0.0,-999.0,96,-99.99,,,-99.99,,2013-06-25 11:43:00,
2013-06-25 07:01:00,73.0,71.0,29.71,WSW,252,0.0,-999.0,95,-99.99,,,-99.99,,2013-06-25 12:01:00,
2013-06-25 07:11:00,73.0,71.0,29.71,WSW,248,1.0,-999.0,95,-99.99,,,-99.99,,2013-06-25 12:11:00,
2013-06-25 07:33:00,74.0,72.0,29.71,WSW,245,1.0,-999.0,94,-99.99,,,-99.99,,2013-06-25 12:33:00,
2013-06-25 07:43:00,74.0,72.0,29.71,WSW,251,1.0,-999.0,94,-99.99,,,-99.99,,2013-06-25 12:43:00,
2013-06-25 08:02:00,75.0,73.0,29.72,WSW,245,1.0,-999.0,92,-99.99,,,-99.99,,2013-06-25 13:02:00,
2013-06-25 08:11:00,75.0,73.0,29.72,WSW,254,1.0,-999.0,92,-99.99,,,-99.99,,2013-06-25 13:11:00,
2013-06-25 08:34:00,75.0,73.0,29.73,WSW,249,1.0,-999.0,92,-99.99,,,-99.99,,2013-06-25 13:34:00,
2013-06-25 08:42:00,75.0,73.0,29.74,WSW,248,0.0,-999.0,92,-99.99,,,-99.99,,2013-06-25 13:42:00,
2013-06-25 08:53:00,75.0,73.0,29.75,WSW,240,0.0,-999.0,92,-99.99,,,-99.99,,2013-06-25 13:53:00,
2013-06-25 09:01:00,75.0,73.0,29.76,WSW,248,1.0,-999.0,92,-99.99,,,-99.99,,2013-06-25 14:01:00,
2013-06-25 09:11:00,75.0,73.0,29.76,WSW,244,1.0,-999.0,92,-99.99,,,-99.99,,2013-06-25 14:11:00,
2013-06-25 09:34:00,75.0,72.0,29.76,SW,235,1.0,-999.0,91,-99.99,,,-99.99,,2013-06-25 14:34:00,
2013-06-25 09:43:00,76.0,73.0,29.75,West,259,0.0,-999.0,91,-99.99,,,-99.99,,2013-06-25 14:43:00,
2013-06-25 10:02:00,76.0,73.0,29.75,WSW,241,1.0,-999.0,91,-99.99,,,-99.99,,2013-06-25 15:02:00,
2013-06-25 10:11:00,76.0,73.0,29.74,WSW,248,1.0,-999.0,90,-99.99,,,-99.99,,2013-06-25 15:11:00,
2013-06-25 10:22:00,77.0,74.0,29.75,West,259,1.0,-999.0,90,-99.99,,,-99.99,,2013-06-25 15:22:00,
2013-06-25 10:32:00,78.0,75.0,29.74,WSW,258,0.0,-999.0,90,-99.99,,,-99.99,,2013-06-25 15:32:00,
2013-06-25 10:44:00,80.0,76.0,29.74,SSW,213,1.0,-999.0,87,-99.99,,,-99.99,,2013-06-25 15:44:00,
2013-06-25 11:03:00,81.0,75.0,29.74,WSW,237,1.0,-999.0,82,-99.99,,,-99.99,,2013-06-25 16:03:00,
2013-06-25 11:12:00,81.0,74.0,29.74,WSW,244,2.0,-999.0,80,-99.99,,,-99.99,,2013-06-25 16:12:00,
2013-06-25 11:23:00,81.0,74.0,29.74,WSW,240,2.0,-999.0,80,-99.99,,,-99.99,,2013-06-25 16:23:00,
2013-06-25 11:35:00,82.0,75.0,29.74,WSW,239,2.0,-999.0,80,-99.99,,,-99.99,,2013-06-25 16:35:00,
2013-06-25 11:44:00,82.0,75.0,29.74,WSW,246,2.0,-999.0,80,-99.99,,,-99.99,,2013-06-25 16:44:00,
2013-06-25 11:52:00,82.0,75.0,29.74,WSW,243,2.0,-999.0,79,-99.99,,,-99.99,,2013-06-25 16:52:00,
2013-06-25 12:01:00,83.0,76.0,29.74,West,262,2.0,-999.0,80,-99.99,,,-99.99,,2013-06-25 17:01:00,
2013-06-25 12:11:00,83.0,75.0,29.74,WSW,240,2.0,-999.0,77,-99.99,,,-99.99,,2013-06-25 17:11:00,
2013-06-25 12:33:00,83.0,75.0,29.72,WSW,245,1.0,-999.0,77,-99.99,,,-99.99,,2013-06-25 17:33:00,
2013-06-25 12:44:00,83.0,75.0,29.72,WSW,249,2.0,-999.0,78,-99.99,,,-99.99,,2013-06-25 17:44:00,
2013-06-25 13:02:00,84.0,76.0,29.73,WSW,240,2.0,-999.0,77,-99.99,,,-99.99,,2013-06-25 18:02:00,
2013-06-25 13:12:00,84.0,76.0,29.72,WSW,253,1.0,-999.0,76,-99.99,,,-99.99,,2013-06-25 18:12:00,
2013-06-25 13:22:00,84.0,75.0,29.72,West,265,1.0,-999.0,75,-99.99,,,-99.99,,2013-06-25 18:22:00,
2013-06-25 13:34:00,84.0,75.0,29.72,West,263,2.0,-999.0,75,-99.99,,,-99.99,,2013-06-25 18:34:00,
2013-06-25 13:44:00,85.0,76.0,29.72,SW,236,2.0,-999.0,74,-99.99,,,-99.99,,2013-06-25 18:44:00,
2013-06-25 13:52:00,84.0,75.0,29.71,WSW,252,2.0,-999.0,75,-99.99,,,-99.99,,2013-06-25 18:52:00,
2013-06-25 14:01:00,84.0,75.0,29.71,WSW,238,1.0,-999.0,75,-99.99,,,-99.99,,2013-06-25 19:01:00,
2013-06-25 14:12:00,84.0,76.0,29.71,WSW,241,1.0,-999.0,77,-99.99,,,-99.99,,2013-06-25 19:12:00,
2013-06-25 14:33:00,84.0,77.0,29.70,West,277,1.0,-999.0,79,-99.99,,,-99.99,,2013-06-25 19:33:00,
2013-06-25 14:44:00,84.0,77.0,29.70,West,261,1.0,-999.0,79,-99.99,,,-99.99,,2013-06-25 19:44:00,
2013-06-25 15:02:00,84.0,77.0,29.69,SSW,206,1.0,-999.0,80,-99.99,,,-99.99,,2013-06-25 20:02:00,
2013-06-25 15:11:00,84.0,77.0,29.68,SW,232,1.0,-999.0,79,-99.99,,,-99.99,,2013-06-25 20:11:00,
2013-06-25 15:22:00,84.0,76.0,29.68,SW,233,0.0,-999.0,78,-99.99,,,-99.99,,2013-06-25 20:22:00,
2013-06-25 15:33:00,84.0,76.0,29.67,WSW,248,1.0,-999.0,78,-99.99,,,-99.99,,2013-06-25 20:33:00,
2013-06-25 15:42:00,84.0,77.0,29.67,SW,236,1.0,-999.0,79,-99.99,,,-99.99,,2013-06-25 20:42:00,
2013-06-25 15:52:00,84.0,77.0,29.68,SW,236,1.0,-999.0,79,-99.99,,,-99.99,,2013-06-25 20:52:00,
2013-06-25 16:01:00,82.0,72.0,29.68,West,264,2.0,-999.0,71,-99.99,,,-99.99,,2013-06-25 21:01:00,
2013-06-25 16:11:00,80.0,69.0,29.69,WSW,244,2.0,-999.0,70,-99.99,,,-99.99,,2013-06-25 21:11:00,
2013-06-25 16:22:00,77.0,68.0,29.67,West,263,1.0,-999.0,75,-99.99,,,-99.99,,2013-06-25 21:22:00,
2013-06-25 16:34:00,76.0,68.0,29.68,West,263,0.0,-999.0,77,-99.99,,,-99.99,,2013-06-25 21:34:00,
2013-06-25 16:43:00,75.0,69.0,29.69,SW,236,1.0,-999.0,81,-99.99,,,-99.99,,2013-06-25 21:43:00,
2013-06-25 16:53:00,74.0,69.0,29.68,WSW,248,0.0,-999.0,84,-99.99,,,-99.99,,2013-06-25 21:53:00,
2013-06-25 17:01:00,74.0,70.0,29.68,WSW,248,0.0,-999.0,87,-99.99,,,-99.99,,2013-06-25 22:01:00,
2013-06-25 17:11:00,73.0,69.0,29.68,WSW,251,1.0,-999.0,86,-99.99,,,-99.99,,2013-06-25 22:11:00,
2013-06-25 17:22:00,72.0,68.0,29.67,WSW,245,0.0,-999.0,88,-99.99,,,-99.99,,2013-06-25 22:22:00,
2013-06-25 17:34:00,71.0,68.0,29.67,SSE,163,0.0,-999.0,89,-99.99,,,-99.99,,2013-06-25 22:34:00,
2013-06-25 17:42:00,71.0,69.0,29.67,SSW,194,0.0,-999.0,92,-99.99,,,-99.99,,2013-06-25 22:42:00,
2013-06-25 17:52:00,70.0,68.0,29.66,SSW,210,0.0,-999.0,92,-99.99,,,-99.99,,2013-06-25 22:52:00,
2013-06-25 18:01:00,70.0,68.0,29.66,SW,218,0.0,-999.0,92,-99.99,,,-99.99,,2013-06-25 23:01:00,
2013-06-25 18:11:00,70.0,67.0,29.65,SW,218,0.0,-999.0,91,-99.99,,,-99.99,,2013-06-25 23:11:00,
2013-06-25 18:22:00,70.0,67.0,29.64,SW,218,0.0,-999.0,91,-99.99,,,-99.99,,2013-06-25 23:22:00,
2013-06-25 18:34:00,70.0,68.0,29.64,SW,218,0.0,-999.0,92,-99.99,,,-99.99,,2013-06-25 23:34:00,
2013-06-25 18:43:00,71.0,69.0,29.64,SW,218,0.0,-999.0,92,-99.99,,,-99.99,,2013-06-25 23:43:00,
2013-06-25 18:52:00,72.0,69.0,29.64,SW,218,0.0,-999.0,91,-99.99,,,-99.99,,2013-06-25 23:52:00,
2013-06-25 19:02:00,73.0,70.0,29.64,SW,218,0.0,-999.0,89,-99.99,,,-99.99,,2013-06-26 00:02:00,
2013-06-25 19:11:00,73.0,69.0,29.64,SW,218,0.0,-999.0,88,-99.99,,,-99.99,,2013-06-26 00:11:00,
2013-06-25 19:22:00,74.0,70.0,29.64,SW,218,0.0,-999.0,88,-99.99,,,-99.99,,2013-06-26 00:22:00,
2013-06-25 19:33:00,74.0,70.0,29.65,SW,218,0.0,-999.0,88,-99.99,,,-99.99,,2013-06-26 00:33:00,
2013-06-25 19:42:00,74.0,70.0,29.65,SW,218,0.0,-999.0,88,-99.99,,,-99.99,,2013-06-26 00:42:00,
2013-06-25 19:52:00,74.0,70.0,29.65,SW,218,0.0,-999.0,88,-99.99,,,-99.99,,2013-06-26 00:52:00,
2013-06-25 20:01:00,74.0,70.0,29.65,SW,218,0.0,-999.0,88,-99.99,,,-99.99,,2013-06-26 01:01:00,
2013-06-25 20:11:00,74.0,70.0,29.64,SW,218,0.0,-999.0,86,-99.99,,,-99.99,,2013-06-26 01:11:00,
2013-06-25 20:22:00,74.0,69.0,29.64,SW,218,0.0,-999.0,85,-99.99,,,-99.99,,2013-06-26 01:22:00,
2013-06-25 20:33:00,74.0,68.0,29.64,SW,227,0.0,-999.0,83,-99.99,,,-99.99,,2013-06-26 01:33:00,
2013-06-25 20:43:00,73.0,68.0,29.65,SW,227,0.0,-999.0,83,-99.99,,,-99.99,,2013-06-26 01:43:00,
2013-06-25 20:53:00,73.0,68.0,29.65,SSE,161,0.0,-999.0,83,-99.99,,,-99.99,,2013-06-26 01:53:00,
2013-06-25 21:02:00,73.0,68.0,29.64,SSW,209,0.0,-999.0,84,-99.99,,,-99.99,,2013-06-26 02:02:00,
2013-06-25 21:11:00,72.0,67.0,29.65,SW,219,0.0,-999.0,84,-99.99,,,-99.99,,2013-06-26 02:11:00,
2013-06-25 21:22:00,72.0,67.0,29.64,WSW,246,0.0,-999.0,84,-99.99,,,-99.99,,2013-06-26 02:22:00,
2013-06-25 21:34:00,72.0,67.0,29.65,WSW,248,0.0,-999.0,85,-99.99,,,-99.99,,2013-06-26 02:34:00,
2013-06-25 21:43:00,72.0,68.0,29.65,WSW,248,0.0,-999.0,86,-99.99,,,-99.99,,2013-06-26 02:43:00,
2013-06-25 22:02:00,72.0,67.0,29.66,WSW,251,0.0,-999.0,85,-99.99,,,-99.99,,2013-06-26 03:02:00,
2013-06-25 22:11:00,72.0,67.0,29.66,WSW,251,0.0,-999.0,85,-99.99,,,-99.99,,2013-06-26 03:11:00,
2013-06-25 22:33:00,71.0,67.0,29.68,WSW,253,1.0,-999.0,87,-99.99,,,-99.99,,2013-06-26 03:33:00,
2013-06-25 22:43:00,71.0,67.0,29.68,WSW,250,1.0,-999.0,88,-99.99,,,-99.99,,2013-06-26 03:43:00,
2013-06-25 22:52:00,71.0,67.0,29.69,West,265,0.0,-999.0,88,-99.99,,,-99.99,,2013-06-26 03:52:00,
2013-06-25 23:01:00,71.0,68.0,29.69,West,265,0.0,-999.0,90,-99.99,,,-99.99,,2013-06-26 04:01:00,
2013-06-25 23:12:00,70.0,67.0,29.70,West,265,0.0,-999.0,91,-99.99,,,-99.99,,2013-06-26 04:12:00,
2013-06-25 23:22:00,70.0,68.0,29.71,West,265,0.0,-999.0,92,-99.99,,,-99.99,,2013-06-26 04:22:00,
2013-06-25 23:33:00,70.0,68.0,29.70,NE,45,0.0,-999.0,93,-99.99,,,-99.99,,2013-06-26 04:33:00,
2013-06-25 23:43:00,70.0,68.0,29.70,WSW,243,0.0,-999.0,94,-99.99,,,-99.99,,2013-06-26 04:43:00,